Regional Weather Roundup
Issued by NWS Grand Forks, ND

Home | Current Version | Previous Version | Text Only | Print | Product List | Glossary Off
Versions: 1 2 3 4 5 6 7 8 9 10 11 12 13 14 15 16 17 18 19 20 21 22 23 24 25 26 27 28 29 30 31 32 33 34 35 36 37 38 39 40 41 42 43 44 45 46 47 48 49 50

000
ASUS43 KFGF 192010
RWRFGF
PRAIRIE TO PINES  WEATHER ROUNDUP
NATIONAL WEATHER SERVICE EASTERN NORTH DAKOTA/GRAND FORKS ND
300 PM CDT SAT APR 19 2014

 **SATELLITE DATA USED TO AUGMENT SKY COVER AT AUTOMATED STATIONS**
 *****  WEATHER ACROSS EASTERN NORTH DAKOTA  *****

CITY           SKY/WX    TMP DP  RH WIND       PRES   REMARKS
GRAND FORKS    MOSUNNY   62  39  42 W22       29.84S
GRAND FRKS AFB SUNNY     61  37  40 W22G28    29.85R
GRAND FRKS NWS   N/A     63 N/A N/A W14         N/A
DEVILS LAKE    CLOUDY    54  37  54 W26       29.87R
FARGO          PTSUNNY   68  29  23 W22       29.89R
WAHPETON ARPT  PTCLDY    66  23  19 W20G28    29.93R
$$

 ***** WEATHER ACROSS CENTRAL AND WESTERN NORTH DAKOTA  *****

CITY           SKY/WX    TMP DP  RH WIND       PRES   REMARKS
BISMARCK       SUNNY     66  27  23 W22G28    29.92S
MINOT          CLOUDY    49  34  56 W16G26    29.90R
JAMESTOWN      SUNNY     65  31  28 NW22      29.88S
MINOT AFB      CLOUDY    47  35  63 W18       29.90R
GARRISON         N/A     51  36  56 NW16G29   29.93R
WILLISTON      CLOUDY    56  33  42 W17G28    29.93R
DICKINSON      SUNNY     59  32  36 NW21G29   29.93R
HETTINGER      SUNNY     62  29  28 W20G28    29.97S
$$

 *****  OTHER AIRPORT OBSERVATIONS IN OUR AREA  *****

CITY           SKY/WX    TMP DP  RH WIND       PRES   REMARKS
WALHALLA         N/A     54  39  58 W24G32    29.79R
GRAFTON AIRPOR FAIR      55  39  54 W24G33    29.83R
VALLEY CITY AR FAIR      63  32  31 W16G26    29.89S
CANDO          CLOUDY    50  39  66 W21G36    29.85R
CAVALIER APRT  MOCLDY    54  39  58 W20G32    29.81R
GWINNER        CLEAR     66  34  30 W14G25    29.94R
SHEYENNE NWR     N/A     68  31  25 W13       29.95
ROLLA          MOCLDY    46  37  71 W21G28    29.83R
 ***** THE ABOVE OBSERVATIONS ARE NON NWS ARE NOT QUALITY
       CONTROLLED AND MAY MIS-REPORT RAIN FOR SNOW...
$$

  *****  WEATHER ACROSS NORTHERN MINNESOTA  *****

CITY           SKY/WX    TMP DP  RH WIND       PRES   REMARKS
FLAG ISLAND    PTSUNNY   52  36  54 SW23G35   29.74S
WARROAD        SUNNY     57  39  51 SW18G33   29.79R
ROSEAU         MOSUNNY   59  39  47 SW24G33   29.79R
HALLOCK          N/A     55  41  58 W29G35    29.80R
THF RVR FALLS  SUNNY     59  36  41 W26G32    29.84S
BAUDETTE       MOSUNNY   59  36  42 W14G31    29.79S
WASKISH        PTSUNNY   61  36  39 SW18      29.84S
CROOKSTON      SUNNY     63  37  39 W17G26    29.86R
$$
  *****  WEATHER ACROSS CENTRAL AND WEST MINNESOTA  *****

CITY           SKY/WX    TMP DP  RH WIND       PRES   REMARKS
FOSSTON        PTSUNNY   63  32  31 SW21G29   29.87S
BEMIDJI        PTSUNNY   62  31  31 SW18G24   29.87R
PARK RAPIDS    MOSUNNY   64  28  25 W16G30    29.89S
ELBOW LAKE     FAIR      67  29  24 W16G24    29.94S
WADENA         MOSUNNY   63  36  36 W12G22    29.92S
DETROIT LAKES  PTSUNNY   63  30  29 W15       29.92R
MOORHEAD       NOT AVBL
FERGUS FALLS   MOSUNNY   66  25  20 W13G22    29.89S
MORRIS MN      PTSUNNY   66  36  32 W12G17    29.95S
STAPLES        MOSUNNY   63  43  48 SW12G17   29.93S
$$
  *****  WEATHER ELSEWHERE ACROSS MINNESOTA  *****

CITY           SKY/WX    TMP DP  RH WIND       PRES   REMARKS
DULUTH         CLOUDY    37  30  75 SE10      30.01F
INTRNTL FALLS  PTSUNNY   51  37  58 S9G20     29.85F
ELY            CLOUDY    37  30  75 S14       29.98F
CLOQUET        CLOUDY    43  30  61 SE7       30.00F
WHEATON        MOSUNNY   72  36  26 SW12G18   29.96R
BRAINERD       PTSUNNY   65  43  44 S15G26    29.95S
HIBBING        CLOUDY    49  33  54 S14G24    29.95S
ALEXANDRIA     PTSUNNY   63  39  41 SW9       29.95S
SAINT CLOUD    LGT RAIN  57  44  62 S8        29.97F
MINNEAPOLIS    PTSUNNY   66  43  43 S14G23    30.00F
$$

  *****  WEATHER ACROSS SOUTH DAKOTA  *****

CITY           SKY/WX    TMP DP  RH WIND       PRES   REMARKS
SIOUX FALLS    CLOUDY    67  42  40 N8        29.99R
BROOKINGS      NOT AVBL
WATERTOWN      PTSUNNY   64  27  24 W14G22    29.99S
HURON          PTSUNNY   68  24  19 W8        29.99F
SISSETON         N/A     68  27  21 W15       29.94R
ABERDEEN       MOSUNNY   68  24  19 W14       29.96S
MITCHELL       PTSUNNY   68  31  25 N10       30.00S
PIERRE         MOSUNNY   67  22  18 SW8G18    29.99F
MOBRIDGE       SUNNY     66  26  22 NW14      29.93S
RAPID CITY     MOSUNNY   61  23  23 SE12      30.02F
$$

  *****  SOME WEATHER IN NEARBY STATES *****

CITY           SKY/WX    TMP DP  RH WIND       PRES   REMARKS
GLASGOW MT     SUNNY     56  35  45 W12       29.92F
GREAT FALLS MT SUNNY     59  15  18 SW13G26   29.87F
CHEYENNE WY    CLOUDY    58  38  47 S10       30.08S
SCOTTSBLUFF NE PTSUNNY   62  31  31 SE10G17   30.05S
OMAHA NE       CLOUDY    78  43  28 S22       29.99F
DES MOINES IA  CLOUDY    77  44  30 S21G28    30.08F
DAVENPORT IA   MOSUNNY   72  35  25 S10G22    30.22F
CHICAGO IL     PTSUNNY   63  36  36 SE9       30.29F
EAU CLAIRE WI  CLOUDY    64  34  32 S17       30.08F
LA CROSSE WI   MOSUNNY   67  34  29 S16       30.12F
$$

  *****  SOME NATIONAL WEATHER *****

CITY           SKY/WX    TMP DP  RH WIND       PRES   REMARKS
LA GUARDIA NY  PTSUNNY   64  24  21 N6        30.22F
RALEIGH NC     CLOUDY    51  46  83 NE12      30.18S
ATLANTA GA     LGT RAIN  61  55  82 NE20      30.09S FOG
NEW ORLEANS LA MOSUNNY   75  53  46 NW9       30.12F
OKLAHOMA CITY  PTSUNNY   75  48  38 S17       30.10S
ALBUQUERQUE NM CLOUDY    56  46  69 S16       30.13S
SALT LAKE CITY PTSUNNY   70  38  31 NW5       29.99F
LOS ANGELES CA PTSUNNY   66  53  63 W13G20    30.02F
BOISE ID       MOSUNNY   70  23  17 SE9       29.91F
SEATTLE WA     LGT RAIN  47  43  86 SE12G21   29.87F FOG
$$

*** WEATHER ACROSS MANITOBA...SASKATCHEWAN AND ONTARIO ***
                ***ONTARIO***

CITY           SKY/WX    TMP DP  RH WIND       PRES   REMARKS
GERALDTON      HVY SNOW  30  28  93 SE14      30.24  VSB 1/4 WCI  20
THUNDER BAY    LGT RAIN  34  32  93 E9        30.15F
SIOUX LOOKOUT  DRIZZLE   34  32  93 S15G25    29.91S FOG     WCI  24
TORONTO        MOSUNNY   50  32  50 SE8       30.41F
BIG TROUT LK   CLOUDY    41  18  38 SE14G24   30.03F
PICKLE LAKE    LGT SNOW  30  28  93 SE22G31   29.99F VSB 1   WCI  17
DRYDEN         CLOUDY    36  34  93 S17G24    29.84F
KENORA         PTSUNNY   46  37  71 S14G21    29.76S
$$
                *** MANITOBA***

CITY           SKY/WX    TMP DP  RH WIND       PRES   REMARKS
BRANDON        CLOUDY    41  36  81 W25       29.80R
DAUPHIN        CLOUDY    37  32  81 W21G29    29.72R
ISLAND LAKE    LGT SNOW  32  32 100 E10G25    29.76  DRFTSNOWWCI  24
PILOT MOUND      N/A     46  36  66 W14G24      N/A
THE PAS        LGT SNOW  32  32 100 N8        29.72S WCI  25
THOMPSON       LGT SNOW  32  32 100 E13G18    29.81  VSB 3/4 WCI  22
WINNIPEG       CLOUDY    48  41  76 W16G23    29.73R
LYNN LAKE      CLOUDY    37  14  38 E13G22    29.83S
CHURCHILL      PTSUNNY   30  21  69 E12       30.14F WCI  21
GILLAM         CLOUDY    41  18  38 E13G22    29.93F
$$
                ***SASKATCHEWAN***

CITY           SKY/WX    TMP DP  RH WIND       PRES   REMARKS
ESTEVAN        PTSUNNY   46  36  66 NW17G28   29.90R
KINDERSLEY     CLOUDY    43  32  65 W12       29.86R
LLOYDMINSTER   MOSUNNY   45  30  57 W10       29.80F
PRINCE ALBERT  CLOUDY    36  28  75 NW13      29.82R
REGINA         CLOUDY    39  34  81 W18G26    29.88R
YORKTON        CLOUDY    34  28  80 W20G26    29.80R WCI  22
N. BATTLEFORD  CLOUDY    37  32  81 NW7       29.86R
LA RONGE       FLURRIES  34  28  80 W8        29.81S
SASKATOON      CLOUDY    36  30  80 NW8       29.87R
SWIFT CURRENT  CLOUDY    37  32  81 W15       29.87S
$$
NOTE: THESE ARE AUTOMATED STATIONS WITH LIMITED QUALITY CONTROL
      "FAIR" INDICATES FEW OR NO CLOUDS BELOW 12,000 FEET WITH NO
      SIGNIFICANT WEATHER AND/OR OBSTRUCTIONS TO VISIBILITY.
      SKY/WX - SKY CONDITION AND SIGNIFICANT WEATHER.
      TMP - AIR TEMPERATURE.    DP   - DEWPOINT TEMPERATURE.
      RH  - RELATIVE HUMIDITY.  PRES - PRESSURE.
      HX  - HEAT INDEX.         WCI  - WIND CHILL INDEX.
$



USA.gov is the U.S. government's official web portal to all federal, state and local government web resources and services.